Regional Weather Roundup
Issued by NWS

Home | Current Version | Previous Version | Graphics & Text | Print | Product List | Glossary On
Versions: 1 2 3 4 5 6 7 8 9 10 11 12 13 14 15 16 17 18 19 20 21 22 23 24 25 26 27 28 29 30 31 32 33 34 35 36 37 38 39 40 41 42 43 44 45 46 47 48 49 50
000
ASUS43 KTOP 241059
RWRKS

WEATHER ROUNDUP FOR KANSAS
NATIONAL WEATHER SERVICE GOODLAND KS
600 AM CDT THU JUL 24 2014

NOTE:  "FAIR" INDICATES FEW OR NO CLOUDS BELOW 12,000 FEET WITH NO
SIGNIFICANT WEATHER AND/OR OBSTRUCTIONS TO VISIBILITY.

KSZ001>006-013>018-027>032-041>047-241200-
NORTHWEST KANSAS

CITY           SKY/WX    TMP DP  RH WIND       PRES   REMARKS
GOODLAND       CLEAR     68  67  96 S16       30.11F
HAYS           CLEAR     45 N/A N/A E7        30.10S
HILL CITY      CLEAR     66  63  90 E5        30.09F
RUSSELL        CLEAR     65  61  87 SE7       30.09S
$$

KSZ061>065-074>080-084>089-241200-
SOUTHWEST KANSAS

CITY           SKY/WX    TMP DP  RH WIND       PRES   REMARKS
DODGE CITY     CLEAR     70  64  81 S9        30.11F
ELKHART          N/A     70  59  68 SW8         N/A
GARDEN CITY    MOCLDY    67  65  93 S7        30.12S
GREAT BEND     CLEAR     66  63  88 E8        30.09F
LIBERAL        CLEAR     72  66  83 S5        30.14F
$$

KSZ066>073-081>083-090>101-241200-
SOUTHEAST KANSAS

CITY           SKY/WX    TMP DP  RH WIND       PRES   REMARKS
CHANUTE        PTCLDY    68  63  84 E9        30.10R
COFFEYVILLE    PTCLDY    67  65  93 NE6       30.07S
HUTCHINSON     CLEAR     67  62  84 E5        30.10S
MEDICINE LODGE   N/A     71  67  87 E5        30.08F
NEWTON         CLEAR     66  59  77 E6        30.14R
PARSONS        PTCLDY    69  64  84 VRB3      30.10R
WICHITA INTL   PTCLDY    70  64  81 E6        30.09S
WICHITA JABRA  CLEAR     65  64  97 CALM      30.10R
WINFIELD       CLEAR     70  66  87 E7        30.09S
$$

KSZ007>012-019>026-033>040-048>060-102>105-241200-
NORTHEAST KANSAS

CITY           SKY/WX    TMP DP  RH WIND       PRES   REMARKS
CONCORDIA      CLEAR     66  64  93 SE7       30.11R
EMPORIA        CLEAR     64  62  93 E7        30.11R
LAWRENCE       CLEAR     64  60  87 E5        30.13R
MANHATTAN      CLEAR     67  63  87 CALM      30.12R
OLATHE IND     CLEAR     65  60  84 E5        30.14R
OLATHE EXE     CLEAR     65  60  84 E7        30.13R
SALINA         CLEAR     68  62  81 CALM      30.11R
TOPEKA BILLARD CLEAR     66  62  87 CALM      30.13R
TOPEKA FORBES  CLEAR     63  60  90 CALM      30.13R
$$


USA.gov is the U.S. government's official web portal to all federal, state and local government web resources and services.